Chino, CA

11:22 AM PST on February 23, 2018 (GMT -0800)
Chino

Weather History for KCNO - February, 2014

Change the Weather History Date:

Friday, February 14, 2014

  Actual Average Record
Temperature  
Mean Temperature 64 °F -  
Max Temperature 84 °F 63 °F 89 °F (2016)
Min Temperature 45 °F 40 °F 35 °F (2004)
Growing Degree Days 14 (Base 50)    
Moisture  
Dew Point 42 °F    
Average Humidity 54    
Maximum Humidity 90    
Minimum Humidity 16    
Precipitation  
Precipitation 0.00 in - - ()
Sea Level Pressure  
Sea Level Pressure 30.02 in    
Wind  
Wind Speed 1 mph (WNW)    
Max Wind Speed 13 mph    
Max Gust Speed -    
Visibility 8 miles    
Events      
Averages and records for this station are not official NWS values.
T = Trace of Precipitation, MM = Missing Value Source: NWS Daily Summary

Daily Weather History Graph

Daily Weather History Graph

Search for Another Location

Airport or City:

Trip Planner

Search our weather history database for the weather conditions in past years. The results will help you decide how hot, cold, wet, or windy it might be!

Date:

Astronomy

Feb. 14, 2014 Rise Set
Actual Time 6:36 AM PST 5:33 PM PST
Civil Twilight 6:10 AM PST 5:59 PM PST
Nautical Twilight 5:41 AM PST 6:28 PM PST
Astronomical Twilight 5:12 AM PST 6:57 PM PST
Moon 5:39 PM PST (2/14) 6:07 AM PST (2/14)
Length of Visible Light 11h 48m
Length of Day
10h 57m
Full, 100% of the Moon is Illuminated
Feb 14
Full
Feb 14
Full
Feb 22
Last Quarter
Mar 1
New
Mar 8
First Quarter

Hourly Weather History & Observations

Time (PST) Temp. Dew Point Humidity Pressure Visibility Wind Dir Wind Speed Gust Speed Precip Events Conditions
12:53 AM 48.0 °F 43.0 °F 83% 30.04 in 5.0 mi Calm Calm - N/A   Haze
1:53 AM 48.9 °F 46.0 °F 90% 30.04 in 5.0 mi Calm Calm - N/A   Clear
2:53 AM 50.0 °F 45.0 °F 83% 30.03 in 6.0 mi Calm Calm - N/A   Haze
3:53 AM 46.9 °F 44.1 °F 90% 30.03 in 6.0 mi Calm Calm - N/A   Clear
4:53 AM 48.9 °F 42.1 °F 77% 30.04 in 6.0 mi Calm Calm - N/A   Haze
5:53 AM 45.0 °F 39.9 °F 82% 30.06 in 5.0 mi Calm Calm - N/A   Haze
6:53 AM 45.0 °F 42.1 °F 90% 30.06 in 10.0 mi Calm Calm - N/A   Partly Cloudy
7:53 AM 52.0 °F 46.0 °F 80% 30.06 in 10.0 mi Calm Calm - N/A   Partly Cloudy
8:53 AM 60.1 °F 42.1 °F 51% 30.06 in 10.0 mi Calm Calm - N/A   Partly Cloudy
9:53 AM 66.9 °F 43.0 °F 42% 30.07 in 10.0 mi Calm Calm - N/A   Partly Cloudy
10:53 AM 73.0 °F 39.9 °F 30% 30.05 in 10.0 mi Variable 3.5 mph - N/A   Partly Cloudy
11:53 AM 78.1 °F 37.0 °F 23% 30.03 in 10.0 mi NW 3.5 mph - N/A   Partly Cloudy
12:53 PM 82.0 °F 37.9 °F 21% 30.00 in 10.0 mi Calm Calm - N/A   Partly Cloudy
1:53 PM 84.9 °F 33.1 °F 16% 29.98 in 10.0 mi West 6.9 mph - N/A   Partly Cloudy
2:53 PM 84.9 °F 35.1 °F 17% 29.97 in 10.0 mi West 11.5 mph - N/A   Partly Cloudy
3:53 PM 82.9 °F 37.9 °F 20% 29.96 in 10.0 mi West 12.7 mph - N/A   Partly Cloudy
4:53 PM 79.0 °F 37.9 °F 23% 29.96 in 10.0 mi West 5.8 mph - N/A   Partly Cloudy
5:53 PM 72.0 °F 37.9 °F 29% 29.97 in 10.0 mi West 4.6 mph - N/A   Partly Cloudy
6:53 PM 68.0 °F 43.0 °F 40% 29.98 in 10.0 mi Calm Calm - N/A   Clear
7:53 PM 64.9 °F 43.0 °F 45% 29.99 in 10.0 mi Calm Calm - N/A   Clear
8:53 PM 61.0 °F 45.0 °F 56% 30.00 in 5.0 mi Calm Calm - N/A   Haze
9:53 PM 55.9 °F 46.0 °F 69% 30.01 in 5.0 mi Calm Calm - N/A   Haze
10:53 PM 53.1 °F 46.0 °F 77% 30.01 in 5.0 mi North 3.5 mph - N/A   Haze
11:53 PM 55.0 °F 45.0 °F 69% 30.01 in 5.0 mi Calm Calm - N/A   Haze